Weather History for KBRD - November, 2013

Change the Weather History Date:

Wednesday, November 20, 2013

  Actual Average Record
Temperature  
Mean Temperature 39 °F -  
Max Temperature 48 °F 35 °F 53 °F (1963)
Min Temperature 30 °F 18 °F -5 °F (2014)
Degree Days  
Heating Degree Days 26    
Moisture  
Dew Point 28 °F    
Average Humidity 62    
Maximum Humidity 85    
Minimum Humidity 49    
Precipitation  
Precipitation 0.00 in - - ()
Sea Level Pressure  
Sea Level Pressure 29.91 in    
Wind  
Wind Speed 13 mph (South)    
Max Wind Speed 21 mph    
Max Gust Speed 34 mph    
Visibility 9 miles    
Events      
Averages and records for this station are not official NWS values.
T = Trace of Precipitation, MM = Missing Value Source: NWS Daily Summary

Daily Weather History Graph

Daily Weather History Graph

Search for Another Location

Airport or City:

Trip Planner

Search our weather history database for the weather conditions in past years. The results will help you decide how hot, cold, wet, or windy it might be!

Date:

Astronomy

Nov. 20, 2013 Rise Set
Actual Time 7:25 AM CST 4:38 PM CST
Civil Twilight 6:52 AM CST 5:11 PM CST
Nautical Twilight 6:15 AM CST 5:48 PM CST
Astronomical Twilight 5:39 AM CST 6:24 PM CST
Moon 7:22 PM CST (11/20) 9:51 AM CST (11/20)
Length of Visible Light 10h 19m
Length of Day
9h 12m
Waning Gibbous, 91% of the Moon is Illuminated
Nov 20
Waning Gibbous
Nov 25
Last Quarter
Dec 2
New
Dec 9
First Quarter
Dec 17
Full

Hourly Weather History & Observations

Time (CST) Temp. Windchill Dew Point Humidity Pressure Visibility Wind Dir Wind Speed Gust Speed Precip Events Conditions
12:53 AM 43.0 °F 34.2 °F 28.9 °F 58% 29.81 in 10.0 mi South 20.7 mph 34.5 mph N/A   Clear
1:53 AM 43.0 °F 35.1 °F 28.9 °F 58% 29.81 in 10.0 mi South 17.3 mph 29.9 mph N/A   Clear
2:53 AM 43.0 °F 35.1 °F 28.9 °F 58% 29.81 in 10.0 mi South 17.3 mph 24.2 mph N/A   Clear
3:53 AM 42.1 °F 33.6 °F 28.0 °F 58% 29.82 in 10.0 mi South 18.4 mph 24.2 mph N/A   Clear
4:53 AM 43.0 °F 35.7 °F 28.0 °F 56% 29.83 in 10.0 mi South 15.0 mph 23.0 mph N/A   Clear
5:53 AM 42.1 °F 34.2 °F 28.0 °F 58% 29.83 in 10.0 mi South 16.1 mph 23.0 mph N/A   Clear
6:53 AM 42.1 °F 35.2 °F 28.0 °F 58% 29.85 in 10.0 mi South 12.7 mph 23.0 mph N/A   Clear
7:53 AM 43.0 °F 36.4 °F 28.0 °F 56% 29.86 in 10.0 mi South 12.7 mph - N/A   Partly Cloudy
8:53 AM 44.1 °F 37.4 °F 28.0 °F 53% 29.87 in 10.0 mi South 13.8 mph 20.7 mph N/A   Mostly Cloudy
9:53 AM 44.1 °F 37.7 °F 27.0 °F 51% 29.89 in 10.0 mi South 12.7 mph - N/A   Scattered Clouds
10:53 AM 45.0 °F 38.2 °F 27.0 °F 49% 29.90 in 10.0 mi South 15.0 mph 23.0 mph N/A   Scattered Clouds
11:53 AM 46.0 °F 39.9 °F 28.0 °F 50% 29.89 in 10.0 mi South 13.8 mph - N/A   Partly Cloudy
12:53 PM 46.0 °F 40.6 °F 28.0 °F 50% 29.88 in 10.0 mi South 11.5 mph - N/A   Overcast
1:53 PM 46.9 °F - 30.0 °F 52% 29.88 in 10.0 mi South 11.5 mph - N/A   Clear
2:53 PM 48.0 °F - 30.9 °F 52% 29.88 in 10.0 mi South 15.0 mph - N/A   Clear
3:53 PM 45.0 °F 40.1 °F 30.9 °F 58% 29.90 in 10.0 mi South 9.2 mph - N/A   Clear
4:53 PM 41.0 °F 36.4 °F 28.9 °F 62% 29.92 in 10.0 mi SSE 6.9 mph - N/A   Clear
5:53 PM 39.9 °F 36.7 °F 28.0 °F 63% 29.95 in 10.0 mi SE 4.6 mph - N/A   Mostly Cloudy
6:53 PM 39.9 °F 36.7 °F 28.9 °F 65% 29.97 in 10.0 mi South 4.6 mph - N/A   Overcast
7:53 PM 39.0 °F 36.8 °F 28.9 °F 67% 29.99 in 10.0 mi SSE 3.5 mph - N/A   Overcast
8:53 PM 36.0 °F 33.3 °F 28.0 °F 73% 30.00 in 10.0 mi SSE 3.5 mph - N/A   Mostly Cloudy
9:32 PM 33.8 °F 30.8 °F 28.4 °F 81% 29.97 in 8.0 mi SSE 3.5 mph - N/A   Mostly Cloudy
9:53 PM 34.0 °F - 28.0 °F 79% 30.02 in 8.0 mi Calm Calm - N/A   Mostly Cloudy
10:23 PM 33.8 °F - 28.4 °F 81% 29.99 in 7.0 mi Calm Calm - N/A   Scattered Clouds
10:53 PM 30.9 °F - 27.0 °F 85% 30.04 in 6.0 mi Calm Calm - N/A   Mostly Cloudy
11:53 PM 33.1 °F - 28.9 °F 85% 30.06 in 6.0 mi Calm Calm - N/A   Overcast